Temperature
10 10 10 10 10 10 10 10 10 10 10 11 11 11 11 11 11 12 12 12 11 11 11 11 12 12 12 12 12 12 12 12 11 11 11 11 11 11 11 11 11 11 11
9 9 9 9 9 9 9 10 10 10 10 10 10 11 11 11 11 11 11 11 11 11 11 11 11 11 11 11 11 11 11 11 11 11 11 10 10 10 10 10 10 11 10
8 8 8 9 9 9 9 9 9 9 9 9 10 10 10 10 11 11 11 11 11 11 11 11 11 11 11 11 11 11 11 11 11 10 10 10 10 10 10 10 10 10 10
8 8 8 8 8 8 8 8 8 9 9 9 9 9 10 10 10 10 10 10 10 10 10 10 10 10 10 10 10 10 10 10 10 10 10 10 10 10 10 10 10 10 10
7 7 7 7 7 7 7 7 8 8 8 8 8 9 9 9 9 9 10 10 10 10 10 10 10 10 10 10 10 10 10 10 10 10 10 10 10 10 10 10 10 9 9
6 6 6 6 7 7 7 7 7 7 7 7 8 8 8 8 9 9 9 9 9 9 9 9 9 9 9 9 9 9 9 9 9 9 9 9 9 9 9 9 9 9 9
6 6 6 6 6 6 6 6 6 7 7 7 7 7 7 8 8 8 8 8 8 9 8 9 9 9 9 9 9 9 9 9 9 9 9 9 9 9 9 9 9 9 9
5 5 5 5 5 5 5 5 6 6 6 6 6 6 6 6 7 7 7 8 8 8 8 8 8 8 8 8 8 8 9 8 8 8 8 9 9 9 9 9 9 8 8
4 4 4 4 4 5 5 5 5 5 5 5 5 5 5 5 5 6 7 7 7 7 7 8 8 8 8 8 8 8 8 8 8 8 8 8 8 8 8 8 8 8 8
4 4 4 4 4 4 4 4 4 4 4 5 5 5 5 5 5 5 6 6 6 7 7 7 7 7 7 7 7 8 8 8 8 8 8 8 8 8 8 8 8 8 8
3 3 3 3 3 3 3 3 3 4 4 4 4 4 4 5 4 5 4 5 6 6 6 6 7 7 7 7 7 7 7 7 7 8 8 8 8 8 8 8 7 7 7
2 2 2 2 2 3 3 3 3 3 3 3 4 4 4 4 4 4 4 4 5 5 6 6 6 6 6 7 7 7 7 7 7 7 7 7 7 7 7 7 7 7 7
2 2 2 2 2 2 2 2 2 3 3 3 3 3 4 4 4 4 4 4 4 4 5 5 6 6 6 6 6 6 6 7 7 7 7 7 7 7 7 7 6 6 6
1 1 1 1 1 1 2 2 2 2 2 2 3 3 3 3 3 4 4 4 3 3 4 5 5 5 5 6 6 6 6 6 6 7 7 7 7 7 6 6 6 6 6
-0 0 0 0 1 1 1 1 1 2 2 2 2 2 3 3 3 3 3 4 4 3 3 4 4 5 5 5 5 5 5 6 6 6 6 6 6 6 6 6 6 6 6
-1 -1 -0 -0 -0 0 0 1 1 1 1 1 2 2 2 2 2 3 3 3 3 3 3 3 4 4 4 4 4 5 5 5 5 5 5 6 6 6 6 6 6 6 6
-1 -1 -1 -1 -1 -0 -0 -0 0 0 0 1 1 1 1 1 2 2 2 2 3 3 3 3 3 3 3 4 4 4 4 4 5 5 5 5 5 5 5 5 5 5 5
-2 -2 -2 -2 -1 -1 -1 -1 -0 -0 -0 0 0 0 1 1 1 2 2 2 2 2 2 2 3 2 3 3 3 3 4 4 4 4 4 4 4 5 5 5 5 5 5
-2 -2 -2 -2 -2 -2 -1 -1 -1 -1 -1 -0 -0 -0 0 0 0 1 1 2 2 2 2 2 2 2 2 2 3 3 3 3 3 3 4 4 4 4 4 4 4 4 4
-3 -3 -3 -3 -3 -2 -2 -2 -2 -2 -1 -1 -1 -1 -1 -0 -0 0 1 1 1 1 1 1 2 2 2 2 2 2 2 3 3 3 3 3 3 3 4 4 4 4 4
-4 -4 -4 -3 -3 -3 -3 -3 -3 -2 -2 -2 -2 -1 -1 -1 -1 -0 -0 0 1 1 1 1 1 1 1 1 1 1 2 2 2 2 2 2 3 3 3 3 3 3 3
-4 -4 -4 -4 -4 -4 -3 -3 -3 -3 -3 -2 -2 -2 -2 -1 -1 -1 -0 -0 0 0 0 1 1 1 1 1 1 1 1 1 1 1 2 2 2 2 2 3 2 2 2
-5 -5 -5 -5 -4 -4 -4 -4 -4 -4 -3 -3 -3 -2 -2 -2 -1 -1 -1 -1 -0 -0 -0 0 0 0 1 1 1 1 1 1 1 1 1 1 1 2 2 2 2 2 2
-6 -6 -5 -5 -5 -4 -4 -4 -4 -4 -4 -3 -3 -3 -2 -2 -2 -2 -1 -1 -1 -1 -1 -0 -0 0 0 0 0 0 0 0 0 0 -0 0 1 1 1 1 1 1 1
-6 -6 -6 -6 -6 -5 -5 -5 -5 -5 -4 -4 -4 -3 -3 -3 -2 -2 -2 -2 -2 -1 -1 -1 -1 -1 -0 -0 -0 -0 -0 -1 -1 -1 -0 -0 0 0 1 1 1 1 1
-7 -7 -6 -6 -6 -6 -5 -6 -6 -5 -5 -4 -4 -4 -4 -4 -3 -3 -3 -3 -2 -2 -2 -1 -1 -1 -1 -1 -1 -1 -1 -1 -1 -1 -1 -0 -0 -1 -1 -0 0 0 0
Wind_Speed
3 3 3 4 4 4 4 3 4 4 4 4 4 3 3 3 3 2 1 2 4 5 5 6 8 9 10 10 10 10 11 11 10 10 9 9 9 9 9 9 10 10 10
3 2 3 3 3 4 3 3 3 3 3 3 3 3 2 2 2 2 2 2 3 5 5 6 6 8 9 9 10 10 10 10 10 10 9 9 8 8 9 9 9 9 9
3 3 2 3 3 3 3 3 3 3 3 3 2 3 2 1 1 2 2 3 3 4 5 5 5 6 8 9 10 10 9 9 9 9 9 9 8 8 8 8 8 8 8
4 3 2 2 3 3 3 3 2 2 2 2 2 2 2 1 1 1 3 3 3 3 4 4 5 5 6 8 9 10 10 9 9 9 8 8 8 8 8 8 8 8 8
3 3 2 2 2 2 2 2 2 1 1 2 2 2 2 1 1 1 2 2 3 3 3 4 4 5 6 6 8 9 10 9 9 8 8 8 8 8 8 8 8 8 8
3 3 3 3 3 2 1 2 2 1 0 1 1 2 2 2 0 1 1 2 2 3 3 4 4 5 5 6 6 8 9 10 9 9 8 8 8 8 8 8 8 8 7
3 3 3 3 2 1 1 0 0 1 1 0 1 1 2 2 1 0 1 2 2 2 3 3 3 4 4 5 6 7 9 10 10 9 8 8 9 8 8 8 8 8 7
4 3 3 2 3 1 1 1 0 0 1 0 1 0 1 2 1 1 1 1 1 1 2 2 3 3 3 3 3 6 7 10 10 10 9 9 9 9 9 8 8 8 8
5 5 4 3 2 1 2 3 2 1 2 2 1 1 2 2 2 2 1 1 1 0 0 2 3 3 3 3 3 4 6 8 10 11 10 10 10 10 9 9 8 8 9
6 5 5 4 3 2 2 3 3 2 3 3 2 2 2 2 2 1 2 2 2 2 2 1 2 3 3 4 4 4 5 6 8 10 10 10 10 10 9 9 9 8 8
6 6 5 4 4 3 3 4 4 3 3 4 3 2 2 1 1 2 2 3 2 2 2 2 2 3 3 3 3 4 5 5 6 7 9 9 9 9 9 8 8 8 7
5 6 6 5 5 4 4 4 4 5 5 4 4 3 3 3 3 2 2 3 3 3 2 2 2 3 4 3 4 5 6 6 6 7 8 9 9 9 9 8 8 7 7
5 6 6 5 5 5 5 4 5 5 5 5 5 4 4 4 3 3 2 2 3 3 2 2 2 3 4 4 4 5 6 6 7 7 8 8 9 9 9 9 8 7 7
6 7 7 6 6 6 5 4 4 5 5 5 6 5 4 4 4 3 3 3 2 2 2 3 2 4 4 5 5 5 5 6 6 6 6 6 7 8 8 9 8 8 7
7 7 7 6 6 6 5 4 4 5 5 5 5 5 5 4 4 4 3 4 4 4 5 4 3 3 4 4 5 5 4 6 7 6 6 6 5 7 7 7 8 7 7
8 7 7 6 6 5 5 4 4 5 5 5 4 5 5 4 4 4 4 4 4 4 5 4 3 2 3 3 5 4 5 5 7 7 7 6 5 7 8 7 7 7 7
8 7 7 6 6 6 5 5 5 5 5 5 4 5 5 5 4 4 4 4 4 4 4 3 2 2 2 3 3 3 4 4 5 7 7 6 6 7 8 8 8 8 8
8 7 7 6 6 6 6 5 6 5 5 5 5 5 5 4 5 4 4 5 4 4 4 5 3 2 3 4 3 3 2 3 4 6 7 6 6 7 8 8 9 8 8
7 7 6 6 6 6 6 6 5 5 6 5 5 5 5 5 6 4 5 5 4 4 4 5 4 3 2 2 2 2 1 2 3 5 6 6 6 7 8 8 8 8 9
7 7 7 6 6 7 7 6 5 5 5 5 5 5 5 6 6 6 5 5 4 4 4 5 4 3 3 2 3 3 2 2 2 3 5 5 6 6 7 8 8 8 9
7 7 7 6 6 6 6 6 6 5 4 5 5 5 5 6 7 6 5 5 5 5 5 5 5 4 4 4 4 3 3 2 2 2 2 3 3 4 5 7 8 8 8
7 7 6 6 6 6 10 11 8 5 4 5 5 5 5 6 7 9 9 8 8 7 7 6 5 7 7 6 4 5 4 3 3 3 3 3 3 3 4 6 8 9 8
7 7 7 6 7 8 11 11 11 6 5 4 5 5 5 5 6 6 7 9 9 11 10 8 8 8 7 7 7 7 6 5 5 4 3 3 2 4 5 6 8 8 8
6 6 7 7 7 8 11 11 10 6 5 5 5 5 5 5 6 6 5 5 6 7 8 7 7 8 7 7 7 7 6 3 1 2 3 3 3 3 3 6 9 9 8
6 6 6 6 6 8 11 11 10 5 5 5 5 5 5 5 8 8 6 6 6 6 7 8 8 8 9 10 8 5 5 4 3 4 3 3 2 1 1 3 7 9 9
7 7 7 6 6 7 10 10 9 4 5 5 4 5 6 7 8 8 5 5 6 6 4 3 4 5 6 8 10 9 7 6 3 3 4 3 3 2 1 2 2 5 6
Wind_Direction
36 31 23 22 16 12 14 10 11 12 15 20 27 37 35 47 67 75 105 141 150 149 158 160 162 161 157 155 152 148 150 147 146 143 140 137 136 137 136 133 129 127 123
34 33 23 18 15 5 1 1 8 14 7 14 11 15 22 60 67 69 80 120 149 148 149 160 163 167 164 160 156 154 153 154 154 152 151 150 147 146 146 141 139 137 133
28 28 29 17 4 358 3 10 16 24 14 11 2 2 14 43 76 77 85 97 118 135 140 148 158 164 172 168 165 162 161 161 159 157 158 158 156 156 154 152 150 147 144
24 22 17 358 350 5 16 13 17 22 12 7 353 340 358 32 53 96 112 112 116 126 143 153 162 167 172 175 170 167 165 165 164 162 163 164 164 165 163 159 158 158 157
12 8 0 346 354 9 14 7 6 24 10 359 345 340 338 334 25 86 115 124 132 137 145 158 159 166 178 178 180 175 173 173 173 171 170 171 172 172 170 168 170 170 169
352 1 356 348 356 8 8 8 359 357 343 336 345 345 322 302 54 101 150 133 133 136 144 151 157 171 181 188 188 186 182 180 179 178 180 182 182 180 176 174 173 173 173
333 352 352 344 343 306 266 253 26 358 328 34 41 359 338 333 327 311 130 134 122 136 143 147 158 167 178 191 199 195 193 189 186 185 186 186 187 186 183 182 181 182 184
329 333 346 341 337 316 267 235 142 349 274 252 145 125 320 319 326 307 253 183 162 119 126 158 161 165 162 172 199 200 203 202 196 194 196 196 194 193 192 190 189 191 192
330 330 323 318 316 296 248 239 200 203 236 268 225 173 189 221 286 290 273 228 189 205 194 184 184 183 191 185 194 202 204 207 208 202 203 202 199 198 198 196 190 186 190
322 321 319 314 299 282 252 248 235 232 213 240 254 248 240 201 198 255 293 286 269 241 233 235 195 203 198 195 201 203 205 211 217 211 201 197 194 192 193 188 190 190 190
320 318 311 311 303 286 262 258 253 235 225 234 240 246 252 260 226 205 250 278 284 256 246 231 213 211 202 199 209 213 210 214 219 216 207 199 195 191 186 182 180 180 182
312 314 308 303 295 289 274 266 258 246 235 237 245 241 227 216 217 205 227 258 264 273 272 238 221 214 206 204 222 226 220 217 221 224 221 207 196 190 186 183 182 180 181
300 299 306 299 292 288 281 277 260 255 244 238 239 244 242 242 232 224 218 239 261 275 254 256 235 203 207 204 222 234 226 222 223 225 225 210 196 194 194 192 190 189 187
289 298 300 294 292 286 281 278 267 260 256 244 245 245 251 250 237 229 213 205 238 262 258 248 257 216 212 204 218 228 229 226 223 221 220 215 207 201 200 198 195 194 193
303 304 299 293 286 281 277 273 264 268 256 248 243 240 247 251 241 231 222 206 198 226 240 236 226 226 218 209 214 216 229 229 221 214 213 214 211 202 196 198 197 194 194
308 301 297 294 290 281 275 265 266 266 259 255 252 245 249 250 237 228 223 224 214 211 230 225 234 246 227 220 226 218 226 234 219 213 212 210 215 209 198 197 194 192 193
310 307 301 296 292 285 278 263 259 264 265 266 262 255 252 249 241 231 226 226 221 210 229 246 241 241 222 212 225 221 225 228 223 215 211 213 217 213 203 200 198 196 196
312 309 308 304 299 293 282 264 261 261 258 260 262 259 261 255 243 236 228 227 226 218 215 228 236 236 237 213 198 207 224 223 228 220 212 215 216 215 209 205 201 197 196
311 312 309 303 302 299 294 278 263 261 256 253 252 253 256 255 242 241 234 230 232 229 213 211 224 231 242 214 198 216 216 220 236 224 215 220 224 218 210 204 202 204 203
309 310 305 301 301 299 297 292 278 269 266 261 256 251 249 249 246 235 234 230 228 221 210 204 209 212 222 215 190 200 229 232 240 235 228 228 226 226 215 210 210 209 207
308 304 302 302 302 300 296 300 291 276 269 270 265 257 254 255 260 250 241 230 223 219 214 209 210 212 212 201 205 199 212 227 259 234 213 225 219 230 230 219 213 212 210
306 303 300 299 298 298 299 300 303 284 273 269 268 265 263 257 261 257 254 248 234 224 218 217 219 214 213 208 204 194 191 204 244 222 200 232 210 220 238 231 221 215 214
303 301 297 294 292 293 299 299 297 297 279 275 272 265 267 266 269 259 254 253 247 242 232 221 218 217 211 204 199 201 201 210 230 203 190 229 219 228 241 237 223 218 217
298 295 295 293 293 296 301 300 299 295 280 270 266 261 260 263 262 261 253 251 248 247 243 236 227 223 217 203 203 206 203 213 224 207 200 216 216 232 250 242 226 223 225
301 295 297 296 295 300 304 304 304 292 286 278 271 269 264 260 263 263 257 252 256 258 256 247 241 232 225 217 204 187 185 192 224 226 206 191 199 232 255 244 237 225 225
300 302 303 300 293 294 299 302 302 291 290 288 281 272 270 271 273 270 263 250 251 256 248 250 237 228 217 213 210 203 196 204 213 224 202 178 178 164 249 265 239 223 218
Height
1537 1537 1537 1537 1537 1537 1537 1537 1537 1537 1537 1538 1538 1539 1539 1540 1540 1541 1542 1543 1544 1544 1545 1546 1547 1547 1548 1549 1550 1551 1552 1552 1553 1554 1554 1555 1556 1557 1557 1558 1559 1559 1560
1536 1535 1535 1535 1535 1535 1535 1535 1535 1535 1535 1536 1536 1537 1537 1538 1538 1539 1540 1540 1541 1542 1543 1544 1545 1546 1546 1547 1548 1549 1550 1551 1552 1552 1553 1554 1555 1555 1556 1557 1557 1558 1559
1533 1533 1533 1533 1533 1533 1533 1533 1533 1533 1533 1533 1534 1534 1535 1535 1536 1536 1537 1538 1539 1540 1541 1541 1542 1543 1544 1545 1546 1547 1548 1549 1550 1550 1551 1552 1553 1554 1555 1555 1556 1557 1557
1531 1531 1530 1530 1530 1530 1530 1530 1530 1530 1530 1531 1531 1531 1532 1532 1533 1534 1535 1536 1537 1537 1538 1539 1540 1541 1542 1543 1544 1545 1546 1547 1548 1549 1549 1550 1551 1552 1553 1554 1555 1555 1556
1528 1528 1528 1528 1528 1527 1527 1527 1527 1527 1527 1528 1528 1529 1529 1530 1530 1531 1532 1533 1534 1535 1536 1537 1538 1539 1540 1541 1542 1543 1544 1545 1546 1547 1547 1548 1549 1550 1551 1552 1553 1554 1554
1526 1525 1525 1525 1525 1524 1524 1524 1524 1524 1525 1525 1525 1526 1526 1527 1527 1528 1529 1530 1531 1532 1533 1534 1535 1536 1537 1538 1539 1540 1541 1542 1543 1544 1545 1546 1547 1548 1549 1550 1551 1552 1552
1522 1522 1521 1521 1521 1521 1521 1521 1521 1521 1521 1522 1522 1522 1523 1524 1524 1525 1526 1527 1528 1529 1530 1531 1532 1533 1534 1535 1536 1538 1539 1540 1541 1542 1543 1544 1545 1546 1547 1548 1548 1549 1550
1519 1518 1518 1517 1517 1518 1518 1518 1517 1517 1518 1519 1519 1519 1519 1522 1520 1521 1522 1523 1524 1526 1527 1528 1529 1530 1531 1532 1533 1535 1536 1537 1538 1539 1540 1541 1542 1543 1544 1545 1546 1547 1547
1516 1515 1515 1514 1514 1514 1514 1514 1514 1514 1514 1515 1517 1518 1518 1517 1517 1517 1518 1519 1521 1522 1523 1525 1526 1527 1528 1529 1530 1531 1533 1533 1535 1536 1537 1538 1539 1540 1541 1542 1543 1543 1544
1512 1511 1511 1510 1510 1510 1509 1510 1510 1511 1511 1511 1513 1514 1515 1515 1515 1514 1514 1516 1517 1518 1520 1521 1522 1523 1524 1525 1526 1527 1529 1530 1531 1532 1534 1535 1535 1536 1537 1538 1539 1540 1541
1508 1508 1507 1506 1506 1505 1505 1505 1506 1506 1507 1507 1508 1509 1510 1511 1512 1512 1510 1511 1513 1514 1516 1517 1518 1520 1521 1522 1523 1524 1525 1526 1527 1528 1530 1531 1532 1533 1534 1535 1536 1537 1538
1504 1503 1503 1502 1501 1501 1500 1500 1501 1501 1502 1503 1504 1505 1505 1506 1507 1508 1507 1508 1508 1510 1512 1513 1514 1516 1517 1518 1519 1520 1521 1522 1524 1525 1526 1527 1528 1530 1531 1532 1533 1534 1535
1499 1498 1498 1497 1496 1496 1495 1495 1496 1496 1497 1498 1499 1500 1501 1502 1503 1504 1504 1504 1505 1506 1507 1508 1510 1512 1513 1514 1515 1516 1517 1518 1520 1521 1522 1523 1525 1526 1527 1528 1529 1530 1531
1495 1493 1492 1491 1491 1490 1490 1490 1490 1490 1491 1492 1493 1494 1495 1496 1498 1499 1500 1501 1501 1502 1502 1503 1505 1507 1508 1510 1511 1512 1513 1514 1515 1517 1518 1520 1521 1522 1523 1525 1526 1527 1528
1490 1489 1487 1486 1485 1485 1484 1484 1484 1485 1485 1486 1487 1488 1489 1491 1492 1494 1495 1497 1498 1497 1497 1498 1500 1502 1504 1505 1506 1507 1508 1510 1511 1513 1514 1515 1517 1518 1520 1521 1522 1523 1524
1486 1484 1482 1481 1480 1479 1479 1479 1479 1480 1480 1480 1481 1482 1483 1485 1486 1488 1489 1491 1492 1493 1493 1493 1496 1497 1499 1501 1502 1503 1504 1505 1507 1508 1510 1511 1512 1514 1515 1516 1517 1519 1520
1482 1480 1478 1476 1475 1474 1474 1473 1474 1474 1474 1475 1475 1476 1478 1479 1480 1482 1484 1485 1486 1488 1488 1489 1491 1493 1494 1496 1497 1498 1499 1500 1502 1503 1505 1506 1508 1509 1510 1512 1513 1514 1516
1477 1475 1473 1471 1470 1469 1468 1468 1468 1468 1469 1469 1470 1471 1472 1474 1475 1476 1478 1479 1481 1482 1483 1483 1485 1488 1489 1491 1492 1493 1494 1496 1497 1498 1500 1501 1503 1504 1505 1507 1509 1510 1511
1472 1470 1468 1467 1465 1464 1464 1463 1463 1463 1463 1464 1464 1465 1467 1468 1469 1471 1472 1473 1475 1477 1478 1479 1480 1482 1483 1485 1487 1488 1489 1491 1492 1493 1495 1497 1498 1499 1501 1502 1504 1505 1507
1468 1466 1464 1462 1461 1460 1459 1458 1458 1458 1458 1458 1459 1460 1461 1462 1464 1465 1466 1468 1469 1471 1472 1473 1475 1476 1478 1480 1481 1483 1484 1486 1487 1489 1490 1492 1493 1495 1496 1498 1499 1500 1502
1464 1461 1459 1458 1456 1455 1454 1454 1454 1453 1453 1453 1453 1454 1456 1457 1458 1460 1461 1462 1463 1464 1466 1467 1469 1470 1472 1474 1476 1477 1479 1481 1482 1484 1485 1486 1488 1489 1491 1493 1494 1495 1497
1459 1457 1455 1453 1452 1451 1450 1449 1449 1448 1448 1448 1448 1449 1450 1451 1453 1454 1455 1457 1458 1459 1460 1461 1462 1464 1466 1468 1471 1472 1474 1476 1476 1479 1479 1481 1483 1484 1486 1488 1489 1490 1492
1454 1452 1450 1448 1447 1446 1446 1445 1445 1444 1443 1443 1443 1444 1444 1445 1447 1448 1449 1450 1451 1453 1455 1456 1456 1458 1460 1462 1465 1467 1468 1470 1471 1473 1475 1475 1477 1478 1481 1482 1484 1485 1486
1450 1448 1446 1444 1443 1442 1441 1441 1440 1440 1439 1439 1439 1439 1440 1440 1441 1443 1443 1444 1445 1446 1448 1450 1451 1452 1455 1457 1459 1461 1463 1465 1466 1468 1470 1470 1471 1473 1475 1477 1478 1480 1481
1445 1443 1442 1440 1438 1437 1437 1436 1436 1435 1434 1434 1434 1435 1435 1435 1436 1437 1438 1438 1439 1440 1442 1443 1445 1447 1449 1452 1454 1456 1458 1459 1460 1462 1464 1465 1466 1467 1469 1471 1473 1475 1476
1442 1439 1437 1436 1435 1433 1432 1432 1432 1431 1430 1430 1430 1430 1430 1430 1431 1431 1432 1432 1433 1434 1435 1437 1439 1441 1443 1445 1448 1450 1452 1454 1455 1456 1458 1459 1461 1463 1464 1465 1467 1469 1470